Location: Caltech
(34.1382°N, 118.1253°W)
Time: 17:44:28
(UTC-07:00)

HO-68 - Visible Passes

Search period start: 24 April 2014 00:00
Search period end: 04 May 2014 00:00
Orbit: 1193 x 1204 km, 100.3° (Epoch: 24 April)

Date Brightness Start Highest point End Pass type
(mag) Time Alt. Az. Time Alt. Az. Time Alt. Az.
24 Apr ? 20:18:31 12° ESE 20:24:16 32° ENE 20:30:24 10° N visible
24 Apr ? 22:07:58 25° SSW 22:11:43 42° W 22:18:25 10° NNW visible
25 Apr ? 20:02:07 10° ESE 20:07:35 24° ENE 20:13:03 10° NNE visible
25 Apr ? 21:50:44 27° S 21:54:45 57° WSW 22:01:47 10° NNW visible
26 Apr ? 21:33:30 26° S 21:37:50 76° WSW 21:45:01 10° NNW visible
27 Apr ? 21:16:16 24° SSE 21:20:57 83° ENE 21:28:08 10° NNW visible
27 Apr ? 23:05:50 10° WSW 23:09:18 14° W 23:12:47 10° WNW visible
28 Apr ? 20:59:02 20° SE 21:04:07 63° ENE 21:11:10 10° N visible
28 Apr ? 22:48:29 14° SW 22:52:12 20° W 22:57:12 10° NW visible
29 Apr ? 20:41:48 16° SE 20:47:20 48° ENE 20:54:06 10° N visible
29 Apr ? 22:31:15 18° SW 22:35:09 28° W 22:41:05 10° NW visible
30 Apr ? 20:24:35 11° SE 20:30:35 36° ENE 20:36:56 10° N visible
30 Apr ? 22:14:01 21° SSW 22:18:08 37° W 22:24:40 10° NNW visible
01 May ? 20:08:07 10° ESE 20:13:53 27° ENE 20:19:39 10° N visible
01 May ? 21:56:47 23° SSW 22:01:10 50° W 22:08:05 10° NNW visible
02 May ? 19:52:17 10° ESE 19:57:13 21° ENE 20:02:10 10° NNE visible
02 May ? 21:39:34 23° S 21:44:14 68° WSW 21:51:22 10° NNW visible
03 May ? 21:22:20 22° SSE 21:27:20 88° WSW 21:34:32 10° NNW visible
03 May ? 23:13:19 10° WSW 23:15:47 12° W 23:18:16 10° WNW visible
